Retour au catalogue

BLOCK DM-SL R/B

ActifHEO
NORAD 28627·ROCKET BODY· XX

Lancé Mar 1, 2005 depuis Sea Launch Platform

Loading…

Prochains Passages (prochaines 24 heures)

TLE

FraisSource: Space-Track

Époque: Sep 14, 2026, 11:17 UTC

1 28627U 05008B   26257.47078231 -.00000076  00000-0  00000-0 0  9996
2 28627   1.1284  21.8880 6557385 246.6686  34.7534  2.13877027168353

Suivez BLOCK DM-SL R/B en temps réel avec AllMySat

Download on the App Store